OV1-14 R/B, 3177

Orbit data source: Space-Track

OV1-14 R/B, 3177 is space debris originally from a launch on Sat, 06 Apr 1968 UTC launched from the Air Force Western Test Range (AFWTR). Debris objects in space refer to the collection of defunct objects orbiting the Earth. Examples of debris include non-operational satellites, rocket bodies, and fragments generated from explosions, collisions, or faulty payload assembly.

Loading next visibility...
OV1-14 R/B details
Identifier
3177, 1968-026C
Orbit
Active
Last TLE update17 hours ago
Origin
Flag of USUSAF OAR (US)
ManufacturerUTC
MissionSpacecraft
Bus & MotorFW4, Unknown motor
Mass125 kg wet, 125 kg dry
Launch date (UTC)
1968-04-06 (57 years ago)
Launch vehicleUnknown
Launch site
Air Force Western Test Range (AFWTR)
Object type
Payload
Rocket body
Debris
Shape & HBRCyl, 2.05 m
Radar Cross Section1.363 m², Medium (>0.1 m² and < 1m²)

Expand to show TLE details & history

TLE from 17 hours ago
0 OV1-14 R/B
1  3177U 68026C   24356.57516622 -.00000222  00000-0 -32993-3 0  9991
2  3177  99.9614 204.8503 4006409 324.9763  24.5713  6.97834016439627
Epoch: 2024-12-21T13:48Z
Definitive object data (Epoch: 2024-12-21T13:48:14.361Z)
Latitude21.5265°
Longitude-96.78644°
Altitude1,590.909 km
Speed8.101 km/s
True Right ascension13h 23m 35s
True Declination21° 25' 18"
Sunlit
Object was in daylight at TLE epoch
Visualization TLE readout
Latitude-79.32869°
Longitude19.33759°
Altitude1,678.24 km
Speed8.045 km/s
Apparent Right ascension18h 22m 41s
Apparent Declination-63° 40' 27"
Sunlit
Object is in daylight
Visualization observer readout
Local Sidereal Time05:36:08
Azimuth192.345° SSW
Elevation-65.266°
Doppler factor1
Orbital elements
Apogee altitude9,820.417 km
Perigee altitude553.512 km
Semi-major axis11,565.101 km
Eccentricity0.4006409
Inclination99.9614°
RAAN204.8503°
Arg. of periapsis324.9763°
True anomaly56.89029°
Mean anomaly24.5713°
Eccentric anomaly39.02522°
Mean motion1.74509 °/min
BSTAR-0.00032993
Orbital period206.29 mins
Loading maneuver chart data...
Loading historical data...
Loading historical data...
Loading historical data...
Loading historical data...
Loading historical data...
Loading historical data...
Loading historical data...
Other satellites on launch #26 in the year 1968 (1968-04-06 UTC)

OV1-14 R/B Visibility forecast

Observer location: undefined°, undefined

Span
Click to sort rows by Start time (UTC) header in descending order
Start Az.
Max El. time (UTC)
Max El. Az.
Max El.
End time (UTC)
End Az.
56 mins2024-12-22 07:24:21.958Z20.183° NNE2024-12-22 07:46:21.958Z337.613° N24.723°2024-12-22 08:20:21.958Z299.287° NW
33 mins2024-12-22 10:36:21.958Z58.878° ENE2024-12-22 10:47:21.958Z17.327° NNE23.11°2024-12-22 11:09:21.958Z339.565° N
32 mins2024-12-22 13:52:21.958Z161.469° S2024-12-22 13:59:21.958Z16.677° NNE44.982°2024-12-22 14:24:21.958Z346.853° N
38 mins2024-12-22 21:50:21.958Z43.744° NE2024-12-22 22:09:21.958Z64.498° ENE11.601°2024-12-22 22:28:21.958Z84.813° E
102 mins2024-12-23 00:49:21.958Z15.068° NNE2024-12-23 01:42:21.958Z103.603° ESE41.751°2024-12-23 02:31:21.958Z181.807° SSW
92 mins2024-12-23 04:10:21.958Z12.907° NNE2024-12-23 04:49:21.958Z310.188° NW40.867°2024-12-23 05:42:21.958Z243.236° WSW
|